Regional Weather Roundup
Issued by NWS

Current Version | Previous Version | Text Only | Print | Product List | Glossary On
Versions: 1 2 3 4 5 6 7 8 9 10 11 12 13 14 15 16 17 18 19 20 21 22 23 24 25 26 27 28 29 30 31 32 33 34 35 36 37 38 39 40 41 42 43 44 45 46 47 48 49 50
000
ASCA42 TJSJ 250811
RWRPR
PUERTO RICO/U.S. VIRGIN ISLANDS HOURLY WEATHER ROUNDUP
NATIONAL WEATHER SERVICE SAN JUAN PR
400 AM AST THU DEC 25 2014

PRZ001-004-250900-
PUERTO RICO

CITY           SKY/WX    TMP DP  RH WIND       PRES   REMARKS
SAN JUAN LMM   MOCLDY    75  73  94 E5        30.02F
CEIBA          PTCLDY    79  70  73 NE13      30.04S
$$

PRZ006-007-250900-
U.S. VIRGIN ISLANDS

CITY           SKY/WX    TMP DP  RH WIND       PRES   REMARKS
CHRISTIANSTED  MOCLDY    73  70  88 NE8       30.02
$$

HOURLY WEATHER ROUNDUP FOR THE NEWS MEDIA

CITY           SKY/WX    TMP DP  RH WIND       PRES   REMARKS
MIAMI          LGT RAIN  74  71  91 SW7       30.01R
ORLANDO        MOCLDY    64  60  87 W9        29.99R
NEW YORK       LGT RAIN  53  51  93 S16       29.55R VSB 1/4
NEWARK         LGT RAIN  64  62  93 SW14G21   29.52R
CHICAGO        CLOUDY    36  31  82 W13       29.70R WCI  27
HARTFORD       CLOUDY    59  59 100 SW16      29.56F FOG
BOSTON         CLOUDY    47  47 100 CALM      29.53F FOG
DALLAS         CLEAR     36  28  73 SE8       30.00F WCI  30
PHILADELPHIA   CLOUDY    62  55  77 W22G30    29.58R



USA.gov is the U.S. government's official web portal to all federal, state and local government web resources and services.